Regional Weather Roundup
Issued by NWS Charleston, SC

Home | Current Version | Previous Version | Text Only | Print | Product List | Glossary On
Versions: 1 2 3 4 5 6 7 8 9 10 11 12 13 14 15 16 17 18 19 20 21 22 23 24 25 26 27 28 29 30 31 32 33 34 35 36 37 38 39 40 41 42 43 44 45 46 47 48 49 50
000
ASUS42 KCHS 261525
RWRCHS

REGIONAL WEATHER ROUNDUP
NATIONAL WEATHER SERVICE CHARLESTON SC
1000 AM EST MON JAN 26 2015

NOTE: "FAIR" INDICATES FEW OR NO CLOUDS BELOW 12,000 FEET WITH NO
SIGNIFICANT WEATHER AND/OR OBSTRUCTIONS TO VISIBILITY.

NOT ALL STATIONS ARE QUALITY CONTROLLED BY THE NATIONAL
WEATHER SERVICE. USE DATA WITH CAUTION...ESPECIALLY
DEWPOINT OBSERVATIONS.

SCZ027-030-031-034>040-042>050-261600-
...SOUTHEAST SOUTH CAROLINA...

CITY           SKY/WX    TMP DP  RH WIND       PRES   REMARKS
N CHARLESTON   MOSUNNY   53  42  66 W13       29.70F
WATERFRONT PRK   N/A     54 N/A N/A W10G17      N/A
MOUNT PLEASANT FAIR     N/A N/A N/A W12       29.69S
PINOPOLIS      NOT AVBL
MONCKS CORNER  FAIR      54  43  66 CALM      29.69S
SUMMERVILLE    FAIR      52  45  76 W9        29.71S
BEAUFORT MCAS  MOSUNNY   52  43  71 W16G22    29.73S
BEAUFORT ARPT  FAIR      52  45  76 W14G23    29.73R
HILTON HEAD IS MOSUNNY   52  43  71 W14G25    29.76R
WALTERBORO     SUNNY     52  39  62 W12G20    29.72R
ALLENDALE      FAIR      52  41  66 VRB7G16   29.72R

...SOUTHERN MIDLANDS AND PEE DEE...

CITY           SKY/WX    TMP DP  RH WIND       PRES   REMARKS
GEORGETOWN     NOT AVBL
KINGSTREE      NOT AVBL
ORANGEBURG     SUNNY     50  40  68 W13       29.69F
BARNWELL       FAIR      52  41  66 W10       29.72R
AIKEN          FAIR      52  41  66 W13G23    29.72R
MANNING        NOT AVBL
COLUMBIA       MOSUNNY   52  41  66 W15       29.67F
SUMTER         SUNNY     49  41  74 W8        29.65F
FLORENCE       SUNNY     51  40  65 W13       29.66F
MYRTLE BEACH   SUNNY     54  43  66 W14       29.69S
N MYRTLE BEACH MOSUNNY   51  44  77 W10       29.66S

$$

GAZ063-065-086>088-099>101-113>116-118-119-134>141-150-261600-
...SOUTHEAST GEORGIA...

CITY           SKY/WX    TMP DP  RH WIND       PRES   REMARKS
SAVANNAH ARPT  MOSUNNY   52  39  61 W16G26    29.76S
HUNTER AAF     SUNNY     53  41  64 W15G26    29.74S
FORT STEWART   MOSUNNY   52  41  66 W14G21    29.78R
STATESBORO     MOSUNNY   52  42  69 W14G24    29.77R
SYLVANIA       MOSUNNY   51  43  73 W13G24    29.76S
CLAXTON        FAIR      52  43  71 W14G26    29.78S

...CSRA...CENTRAL AND FAR SOUTHEAST GEORGIA...

CITY           SKY/WX    TMP DP  RH WIND       PRES   REMARKS
THOMSON        MOSUNNY   52  44  73 W13G23    29.78R
AUGUSTA-BUSH   SUNNY     51  39  63 W16       29.71S
AUGUSTA-DANIEL SUNNY     51  39  63 W12G22    29.72R
SWAINSBORO     PTSUNNY   52  34  50 W13G22    29.78R
VIDALIA        MOSUNNY   52  43  71 NW12G23   29.80S
EASTMAN        CLOUDY    51  43  75 W15G24    29.87R
HAZLEHURST     CLOUDY    52  43  73 W12G20    29.82R
ALMA           MOSUNNY   51  40  65 NW17G24   29.83S
WAYCROSS       PTSUNNY   54  44  68 NW14G22   29.85R
JESUP          PTSUNNY   55  45  67 NW12G21   29.82S
BAXLEY         FAIR      54  41  62 NW13G18   29.82S
BRUNSWICK      SUNNY     55  41  58 W17G25    29.81F
SAINT SIMONS   SUNNY     53  42  66 W16G24    29.81R

$$

SCZ027-028-034-036>038-045-046-048>050-GAZ119-141-261600-
...LAKE AND SUPPLEMENTAL COASTAL OBSERVATIONS...

STATION/POSITION TIME  TEMP    WIND        PRES    WAVE   SWELL
                       AIR SEA DIR/SP/G            HT/PER HT/PER/DIR
                 (UTC) (F)     (DEG/KT/KT) (MB)    (FT/S) (FT/S/D)
UPR LAKE MARION  NOT AVBL
WINYAH BAY       1500   52     270/  8     1004.0S
LAKE MURRAY      1400   47     280/ 14/ 18 1004.1F
ACE BASIN NERRS  1500   51     300/  5     1006.0S
FORT PULASKI     1500   51 53  280/ 20/ 25 1007.9R
SAPELO ISLAND    1500   53     290/ 15     1009.0R

$$

ANZ835-935-AMZ111-154-330-350-352-354-370-450-454-472-261600-
...C-MAN AND BUOY OBSERVATIONS...

STATION/POSITION TIME  TEMP    WIND        PRES    WAVE   SWELL
                       AIR SEA DIR/SP/G            HT/PER HT/PER/DIR
                 (UTC) (F)     (DEG/KT/KT) (MB)    (FT/S) (FT/S/D)
BUOY 41004       1500   56 69  270/ 19/ 23 1004.9R   6/ 7
BUOY 41008       1500   52 55  290/ 21/ 25 1007.7R   4/ 4
FOLLY BEACH CMAN 1500   53     270/  8/ 12 1006.1S
CAPERS NEARSHORE 1400   52     280/ 16/ 17   N/A
FRIPP NEARSHORE  1400   51     300/ 17/ 21   N/A


STATION/POSITION TIME  TEMP    WIND        PRES    WAVE   SWELL
                       AIR SEA DIR/SP/G            HT/PER HT/PER/DIR
                 (UTC) (F)     (DEG/KT/KT) (MB)    (FT/S) (FT/S/D)
5E ST. MARYS GA  1500      58                N/A     3/ 3
FRYING PAN BUOY  1500   57 67  270/ 16/ 19 1004.3F   6/ 8   3/200/ 8
BUOY 41025       1500   58 70  320/ 10/ 14 1003.9F   3/ 8   3/ 50/ 8
CAPE LOOKOUT NC  1500   50      CALM  /  1 1004.0F
BUOY 41002       1426   71 73  220/ 25/ 29 1004.1F   7/ 6   2/210/ 9
BUOY 41010       1500   65 75  230/ 25/ 29 1008.2R   7/ 6   2/110/ 9
ST AUGUSTINE FL  1500   56     290/ 13/ 18 1011.2R


$$


USA.gov is the U.S. government's official web portal to all federal, state and local government web resources and services.